Lapse_Rate
5.3 5.7 5.6 2.5 2.9 2.5 2.3 2.4 2.6 2.8 2.7 2.7 3.1 4.1 4.2 4.4 4.6 5.1 5.3 5.3 5.3 5.5 5.4 4.9 4.5 4.3 4.2 4.2 4.2 4.0 5.7 9.4
3.9 4.0 4.6 6.0 6.1 3.4 3.4 3.5 3.8 4.1 3.9 3.5 4.1 4.8 4.6 5.6 6.2 4.7 4.2 4.3 4.6 4.9 5.1 5.2 4.8 4.3 4.2 4.0 3.9 4.0 5.7 9.0
3.6 3.4 3.8 5.2 6.6 5.8 5.9 5.5 5.7 6.0 5.5 5.0 6.2 5.6 5.1 5.1 3.4 3.2 3.4 4.0 4.3 4.6 4.9 5.0 4.7 4.6 4.6 4.4 3.8 6.8 9.5 9.7
4.3 3.0 2.9 4.8 5.5 5.6 6.4 5.9 5.7 5.1 4.0 4.6 5.7 6.7 6.8 6.1 6.0 4.3 4.9 4.8 5.6 5.0 5.5 5.4 4.7 8.2 9.3 3.5 5.8 8.2 9.6 9.7
4.3 3.0 2.1 3.0 4.1 4.9 5.4 5.3 5.0 4.8 3.4 2.8 4.1 5.4 4.9 6.1 8.4 8.2 9.4 7.4 6.2 6.0 5.1 6.2 6.6 7.2 7.6 6.6 8.3 9.6 9.6 9.7
4.2 3.4 2.9 2.8 4.5 4.6 5.2 5.5 4.7 4.5 3.4 1.8 2.8 4.2 3.6 4.3 6.1 7.9 9.5 9.6 9.5 9.4 7.5 6.4 6.9 6.4 7.3 8.5 8.2 9.4 10.0 9.8
4.9 4.1 3.6 3.4 3.7 4.1 4.2 4.9 4.7 4.4 3.7 2.1 2.0 3.4 3.2 4.2 5.4 7.9 9.0 8.7 9.2 9.1 9.7 9.9 9.1 8.4 7.5 6.2 7.4 7.9 9.4 10.1
5.1 4.2 3.6 3.6 4.1 4.0 4.5 4.0 5.1 4.7 4.3 2.5 2.1 2.7 2.8 4.1 6.3 7.9 9.3 7.1 7.8 8.2 9.7 9.7 9.8 9.7 7.4 6.3 5.7 6.1 7.1 8.5
5.4 5.1 3.9 4.0 4.3 4.5 5.0 4.7 5.4 5.5 5.2 4.1 2.2 2.4 2.9 4.0 6.4 8.0 8.1 5.9 7.7 8.8 8.6 9.7 9.8 9.8 9.6 9.6 6.5 4.8 5.2 6.8
5.7 5.0 4.4 4.5 4.4 5.0 5.5 5.0 7.0 7.0 6.3 5.6 3.4 3.5 3.3 4.3 7.7 8.5 5.1 6.8 9.1 9.8 9.7 9.5 9.3 8.6 9.6 9.6 9.8 8.6 5.3 5.4
5.9 5.1 4.6 4.7 4.9 6.0 7.0 6.6 7.9 8.6 8.2 7.5 4.9 5.0 4.2 4.6 8.8 8.1 5.7 9.1 9.8 9.6 9.1 9.4 9.2 9.4 9.4 9.4 9.3 9.7 9.8 8.1
5.8 5.2 4.6 5.4 6.0 7.9 9.5 9.6 9.4 9.3 8.7 6.8 5.6 5.8 4.9 5.2 8.7 7.6 7.3 8.4 9.1 8.3 7.6 7.4 8.2 9.4 9.6 9.1 8.9 8.2 7.6 8.2
6.2 5.6 5.1 6.9 7.7 7.9 9.2 9.4 9.7 9.8 9.3 7.5 6.5 5.7 5.3 5.9 8.1 8.7 8.4 8.7 8.3 9.1 9.1 8.9 8.4 9.5 9.1 8.7 7.8 6.2 8.1 9.1
7.9 7.2 5.3 5.9 9.3 8.9 7.8 8.9 9.7 9.8 9.6 9.6 9.4 8.0 7.2 8.6 8.6 9.1 8.0 8.1 8.7 9.2 9.1 9.0 8.9 9.4 8.9 8.7 8.2 8.5 9.0 6.6
9.1 8.4 6.3 5.4 6.0 9.3 9.3 9.8 9.7 9.6 9.6 9.8 9.3 9.1 8.1 8.7 8.9 9.3 9.7 9.8 9.3 7.1 8.3 7.5 7.4 7.3 8.9 8.1 7.7 7.8 8.4 8.8
9.1 7.8 7.7 6.9 5.8 8.1 7.5 9.1 9.0 9.4 9.5 9.6 9.2 9.5 9.6 9.6 9.6 9.6 9.7 9.7 8.6 7.2 7.5 7.5 7.6 7.4 7.9 8.8 8.1 7.5 7.1 7.2
9.1 9.1 9.0 7.4 6.9 6.3 7.8 7.6 8.9 9.6 9.7 9.6 9.8 9.8 9.7 9.7 9.7 9.6 9.8 9.8 9.1 8.2 8.1 8.0 7.4 7.6 8.3 8.5 8.5 8.7 8.8 8.5
9.4 9.5 9.5 8.5 7.9 6.6 6.3 6.9 7.8 9.3 9.5 9.5 9.7 9.9 10.0 9.7 9.7 9.7 9.5 9.6 8.6 7.9 8.4 7.8 7.7 8.4 8.5 8.8 8.4 8.1 8.0 7.9
9.4 9.5 9.3 9.3 8.2 7.9 8.4 8.9 9.3 9.4 9.5 9.6 9.6 9.6 9.7 9.8 9.8 9.7 9.8 9.5 8.9 8.1 8.3 8.4 8.3 8.1 8.5 8.0 8.2 8.0 8.1 7.9
9.3 9.4 9.3 9.5 9.4 9.3 9.6 9.4 9.7 9.7 9.7 9.8 9.8 9.8 9.9 9.8 9.7 9.5 9.5 9.5 9.1 8.6 9.0 9.1 8.9 8.6 8.5 8.9 8.7 8.3 8.9 8.4
Wind_Speed
13 13 11 18 21 18 18 17 17 17 17 18 14 9 5 7 8 9 11 12 12 12 12 10 11 10 11 12 14 13 14 18
13 14 14 13 12 14 14 13 14 14 13 19 18 14 15 6 10 10 12 11 13 15 16 15 13 14 14 13 14 15 16 19
14 15 14 13 12 12 10 11 12 15 17 16 11 11 12 15 15 16 16 17 15 15 16 16 15 16 20 21 17 15 18 17
11 14 14 12 13 12 12 13 13 15 18 18 15 14 14 10 8 6 7 14 18 16 17 18 16 17 18 26 15 15 15 17
11 11 13 12 11 11 11 11 12 12 16 19 16 15 16 15 13 14 14 9 13 15 16 13 15 15 14 16 14 14 13 15
11 12 11 12 10 10 10 9 11 11 14 18 15 12 13 14 12 14 14 15 15 13 11 14 15 16 17 16 16 15 14 14
11 11 11 11 11 10 10 11 11 12 13 16 17 14 9 14 13 13 13 15 15 12 12 10 11 14 15 14 15 15 20 16
9 10 11 11 9 10 8 10 10 11 11 14 17 16 14 13 10 10 13 16 16 15 11 11 11 11 11 13 12 15 20 23
8 9 11 9 8 8 8 10 9 10 11 12 16 15 16 15 10 8 13 17 16 15 13 12 11 11 14 12 10 12 13 16
9 8 7 7 7 6 6 8 8 8 10 11 15 15 16 15 8 8 16 15 13 9 10 11 11 12 11 12 13 10 11 11
8 8 8 7 7 5 5 6 8 8 9 11 14 14 16 15 11 12 16 12 9 10 10 11 11 12 12 13 13 13 15 11
7 6 7 5 5 4 5 5 7 8 9 11 13 13 15 15 12 13 15 9 9 10 12 11 11 12 13 13 12 13 13 13
6 7 7 5 6 6 5 5 5 5 9 11 13 15 15 15 13 12 13 10 11 12 11 13 11 12 12 13 12 16 14 12
6 6 7 7 5 5 4 5 5 5 8 9 11 12 14 13 13 10 12 10 12 12 13 11 11 11 12 12 8 13 8 14
6 6 7 7 7 5 5 4 5 5 7 7 12 12 13 13 14 13 11 9 10 12 12 14 10 10 13 6 6 6 14 11
6 6 6 6 8 6 7 6 7 7 6 8 9 13 13 13 14 15 13 9 10 10 10 10 10 10 9 6 11 10 6 11
5 6 5 5 6 7 6 7 7 7 8 11 10 11 13 13 15 16 13 10 10 11 11 11 7 8 10 11 12 10 13 12
6 5 5 5 5 6 7 8 9 8 8 8 8 8 8 14 16 15 16 14 11 11 11 11 9 11 9 10 9 9 10 12
7 4 5 4 4 5 6 7 8 9 9 8 11 8 8 9 14 13 11 14 13 14 12 10 10 10 12 10 9 9 10 11
7 6 4 4 4 4 5 7 6 6 8 8 8 8 9 15 14 16 18 17 14 14 9 10 11 9 14 11 10 11 10 10
Wind_Direction
49 38 60 85 59 38 39 39 37 32 23 12 353 327 333 312 298 292 291 285 285 282 279 276 275 268 267 266 267 267 277 284
47 42 36 33 38 41 49 41 36 37 31 14 2 7 352 325 311 17 345 320 304 293 285 277 266 270 263 257 261 270 263 273
47 40 33 29 41 31 40 36 33 25 13 9 358 9 2 352 1 2 343 323 298 283 278 275 272 269 258 245 229 250 266 258
53 46 36 34 35 32 29 28 26 28 20 6 6 353 5 331 320 289 310 357 336 304 275 264 257 267 266 222 225 245 256 267
50 50 48 35 49 31 30 31 29 24 25 12 7 358 1 356 349 349 343 346 345 338 334 331 319 289 287 302 235 237 244 254
55 49 41 41 31 38 28 35 21 25 19 16 8 1 1 354 354 344 348 352 340 339 325 320 309 318 304 292 291 284 280 270
49 44 40 34 40 28 27 13 26 12 21 19 11 359 360 349 347 345 348 350 341 336 325 327 317 318 313 319 296 286 280 273
56 47 40 34 36 28 24 22 10 17 18 16 9 1 358 348 344 346 347 345 343 331 335 323 322 309 304 310 309 315 292 288
55 49 35 31 25 21 26 21 11 13 9 12 7 4 355 344 343 347 354 334 337 336 333 331 326 322 314 305 301 309 305 308
63 45 39 36 26 35 24 20 10 14 10 5 6 359 355 341 340 349 347 332 336 338 339 334 328 322 318 315 315 299 296 293
60 49 38 32 35 30 34 28 17 16 13 10 1 360 355 344 343 348 338 340 339 343 337 332 325 320 318 316 310 301 296 282
76 60 40 45 33 24 41 19 22 14 11 9 359 360 356 347 345 348 344 340 344 345 337 335 327 323 319 314 307 305 298 293
75 67 46 34 38 27 14 3 11 8 6 1 1 356 356 346 349 346 349 341 338 340 338 332 330 332 323 324 311 280 278 271
98 78 56 38 45 28 6 358 352 355 357 348 5 351 350 344 344 342 348 337 340 345 339 336 329 343 327 313 319 315 304 339
102 85 68 51 11 25 6 352 350 357 348 348 351 350 347 346 344 342 337 342 338 341 339 341 327 328 334 325 325 314 322 300
105 82 64 56 32 27 10 360 353 348 341 345 335 341 341 342 342 342 335 339 335 330 328 325 323 320 324 316 314 309 314 308
119 108 80 64 45 25 7 4 350 340 337 338 331 341 336 342 342 340 336 335 341 325 322 328 323 315 307 309 310 300 293 286
138 132 102 73 45 30 15 360 344 340 339 327 339 328 342 347 334 339 337 337 333 325 322 315 320 316 315 315 311 313 308 306
153 142 117 87 49 24 5 354 338 337 339 339 332 335 338 334 339 342 330 326 324 322 319 318 319 315 318 309 302 297 298 296
160 147 123 82 46 15 2 356 349 337 347 335 326 334 330 337 344 331 321 328 334 317 318 320 319 318 311 306 305 299 297 293